Regional Weather Roundup
Issued by NWS

Home | Current Version | Previous Version | Graphics & Text | Print | Product List | Glossary On
Versions: 1 2 3 4 5 6 7 8 9 10 11 12 13 14 15 16 17 18 19 20 21 22 23 24 25 26 27 28 29 30 31 32 33 34 35 36 37 38 39 40 41 42 43 44 45 46 47 48 49 50
232
ASUS45 KBOU 221207
RWRCO

WEATHER ROUNDUP FOR COLORADO
NATIONAL WEATHER SERVICE DENVER/BOULDER CO
600 AM MDT SUN OCT 22 2017

NOTE: "FAIR" INDICATES FEW OR NO CLOUDS BELOW 12000 FEET WITH NO
SIGNIFICANT WEATHER AND/OR OBSTRUCTIONS TO VISIBILITY.

COZ001>005-013-030-031-221300-
...NORTHWEST COLORADO...

CITY           SKY/WX    TMP DP  RH WIND       PRES   REMARKS
CRAIG          CLOUDY    30  25  81 CALM      30.38R
HAYDEN         CLOUDY    33  23  66 E8        30.39R WCI  26
MEEKER         FAIR      29  22  75 CALM      30.40R
RABBIT EARS PA CLOUDY    21  18  86 W10G20    30.36R WCI  10
STEAMBOAT SPGS CLOUDY    28  24  85 CALM      30.38R
WALDEN         NOT AVBL
$$

COZ006>008-011-221300-
...WEST CENTRAL VALLEYS...

CITY           SKY/WX    TMP DP  RH WIND       PRES   REMARKS
GRAND JUNCTION FAIR      33  17  51 E10       30.39R WCI  25
MONTROSE       FAIR      28  15  58 S7        30.44R WCI  21
EAGLE          FAIR      23  19  85 E3        30.45R
RIFLE          FAIR      28  23  81 CALM      30.43R
DELTA          FAIR      32  13  44 NE9       30.43S WCI  25
NUCLA          FAIR      30  10  43 SE3       30.44S
$$

COZ017>023-064>068-221300-
...SOUTHWEST COLORADO...

CITY           SKY/WX    TMP DP  RH WIND       PRES   REMARKS
DURANGO        FAIR      26   8  46 CALM      30.37S
CORTEZ         FAIR      25  12  58 E6        30.38F WCI  18
PAGOSA SPRINGS FAIR      27  11  52 W3        30.39S
TELLURIDE      FAIR      28  15  58 SE6       30.47S WCI  22
WOLF CREEK PAS FAIR      28  10  47 W6        30.51R WCI  22
$$

COZ009-010-012-014-032>034-037-058>063-221300-
...CENTRAL COLORADO...

CITY           SKY/WX    TMP DP  RH WIND       PRES   REMARKS
ASPEN          FAIR      22  18  85 CALM      30.41F
BUENA VISTA    FAIR      37  10  34 NW6       30.31S
COPPER MTN     CLOUDY    25  18  74 MISG      30.40S
BERTHOUD PASS  MOCLDY    12   3  67 NW36G44   30.30S WCI -11
COTTONWOOD PAS FAIR      37  18  44 NW9G18    30.33S
GUNNISON       FAIR      18  14  84 CALM      30.46S
KREMMLING      MOCLDY    30  21  69 CALM      30.39S
LEADVILLE      FAIR      21  10  62 E5        30.39R WCI  15
MONARCH PASS   FAIR      19   7  58 W45       30.46R WCI  -3
SALIDA         FAIR      39  11  31 N5G17     30.38S
SUNLIGHT       FAIR      21  12  68 SW13      30.47R WCI   9
WILKERSON PASS FAIR      27  12  54 NW7       30.37R WCI  19
$$

COZ069>075-221300-
...SAN LUIS VALLEY/SANGRE DE CRISTO MOUNTAINS...

CITY           SKY/WX    TMP DP  RH WIND       PRES   REMARKS
ALAMOSA        FAIR      20  10  65 SW6       30.39R WCI  12
DEL NORTE      FAIR      22   5  48 W10       30.39S WCI  11
LA VETA PASS   FAIR      32   9  37 S36G49    30.42S WCI  16
SAGUACHE       FAIR      30  12  47 NW9       30.39S WCI  22
$$

COZ035-036-038>040-221300-
...NORTHERN COLORADO FRONT RANGE...

CITY           SKY/WX    TMP DP  RH WIND       PRES   REMARKS
DENVER INTL AP FAIR      41  14  33 SW14      30.14R
DMNS CITY PARK   N/A     37  16  43 SE7G13    30.15R
AURORA         PTCLDY    37  15  41 S12       30.15S
FRONT RANGE AP FAIR      34  19  55 S8        30.14S WCI  27
ERIE MUNI ARPT FAIR      31  21  66 CALM      30.19R
BOULDER MUN AP FAIR      37  19  48 CALM      30.13R
CENTENNIAL     FAIR      37  14  38 SE8       30.16R
BROOMFIELD     FAIR      45  18  33 NW7       30.14S
FORT COLLINS   FAIR      30  23  75 VRB3      30.15R
LONGMONT       FAIR      30  22  73 CALM      30.15S HAZE
$$

COZ041-046-047-076>085-087-088-221300-
...PIKES PEAK/PALMER DIVIDE AND SOUTHERN FOOTHILLS...

CITY           SKY/WX    TMP DP  RH WIND       PRES   REMARKS
COLO. SPRINGS  FAIR      31  12  45 E8        30.23R WCI  23
A. F. ACADEMY  FAIR      26  10  51 W5        30.22R WCI  20
SCHRIEVER AFB  FAIR      30  11  45 CALM      30.24R
CHEYENNE MTN   FAIR      36   7  30 CALM      30.17S
ELLICOTT         N/A    N/A N/A N/A CALM      30.22R
FALCON         FAIR      30   8  39 SW5       30.24S WCI  25
FORT CARSON    FAIR      27  14  58 NW7       30.21S WCI  19
LIMON          FAIR      34  15  46 S5        30.21R WCI  30
MONUMENT HILL  FAIR      32  14  47 SW9       30.21S WCI  24
CANON CITY     FAIR      45  16  31 W17       30.20S
WALSENBURG     FAIR      43  10  26 W8        30.24R
TRINIDAD       FAIR      30  22  72 W8        30.25S WCI  22
$$

COZ042>045-048>051-090-091-221300-
...NORTHEAST COLORADO...

CITY           SKY/WX    TMP DP  RH WIND       PRES   REMARKS
GREELEY ARPT   FAIR      25  20  81 N3        30.15R
AKRON          FAIR      37  16  42 S10       30.14R
BURLINGTON     FAIR      30  20  66 SW10      30.20R WCI  21
WRAY           FAIR      30  23  74 W9        30.17R WCI  22
YUMA           NOT AVBL
STERLING       FAIR      25  21  86 S8        30.14R WCI  16
HOLYOKE        FAIR      34  27  75 SW5       30.15R WCI  30
FORT MORGAN    FAIR      27  14  58 CALM      30.16R
$$

COZ086-089-092>099-221300-
...SOUTHEAST COLORADO...

CITY           SKY/WX    TMP DP  RH WIND       PRES   REMARKS
PUEBLO         FAIR      26  17  68 SW3       30.22R
LA JUNTA       FAIR      30  18  60 W3        30.24R
LAMAR          FAIR      23  16  74 SW6       30.23R WCI  16
SPRINGFIELD      N/A     26  18  71 W5        30.25S WCI  20
$$




USA.gov is the U.S. government's official web portal to all federal, state and local government web resources and services.